Regional Weather Roundup
Issued by NWS

Home | Current Version | Previous Version | Graphics & Text | Print | Product List | Glossary On
Versions: 1 2 3 4 5 6 7 8 9 10 11 12 13 14 15 16 17 18 19 20 21 22 23 24 25 26 27 28 29 30 31 32 33 34 35 36 37 38 39 40 41 42 43 44 45 46 47 48 49 50
466
ASUS43 KLMK 290902
RWRKY
KENTUCKY REGIONAL WEATHER ROUNDUP
NATIONAL WEATHER SERVICE LOUISVILLE KY
500 AM EDT MON MAY 29 2017

NOTE "FAIR" INDICATES FEW OR NO CLOUDS BELOW 12,000 FEET
WITH NO SIGNIFICANT WEATHER AND/OR OBSTRUCTIONS TO VISIBILITY.

KYZ001>023-026-027-061>063-070>075-291000-
WESTERN AND SOUTH CENTRAL KENTUCKY

CITY           SKY/WX    TMP DP  RH WIND       PRES   REMARKS
PADUCAH        CLOUDY    64  61  90 SW5       29.93S
HENDERSON      MOCLDY    64  63  96 SW3       29.93R
OWENSBORO      CLOUDY    62  61  96 S3        29.93R
HOPKINSVILLE   PTCLDY    64  64 100 SW6       29.95S
BOWLING GREEN  PTCLDY    65  64  97 SW5       29.95S
GLASGOW        NOT AVBL
$$

KYZ024-025-028>034-038-045-046-053-291000-
NORTH CENTRAL KENTUCKY

CITY           SKY/WX    TMP DP  RH WIND       PRES   REMARKS
LOUISVILLE/SDF CLOUDY    66  64  93 S5        29.90R
LOUISVILLE/LOU CLOUDY    63  63 100 S3        29.91R FOG
FORT KNOX      CLOUDY    62  62 100 SW5       29.91S
$$

KYZ035>037-039>044-047>052-055>060-089>105-291000-
NORTHEAST KENTUCKY

CITY           SKY/WX    TMP DP  RH WIND       PRES   REMARKS
LEXINGTON      MOCLDY    65  62  90 SW8       29.93R
COVINGTON      CLOUDY    60  60 100 SW6       29.87R FOG
FRANKFORT      MOCLDY    63  60  90 CALM      29.91R
$$

KYZ054-064>069-076>088-106>120-291000-
SOUTHEAST KENTUCKY

CITY           SKY/WX    TMP DP  RH WIND       PRES   REMARKS
JACKSON        CLOUDY    65  62  90 CALM      29.93R
LONDON         CLOUDY    65  61  87 CALM      29.96R
SOMERSET       NOT AVBL
MIDDLESBORO    CLOUDY    64  63  98 CALM      29.97R
MONTICELLO     CLOUDY    65  63  93 VRB7      29.98R
$$





USA.gov is the U.S. government's official web portal to all federal, state and local government web resources and services.